Location: Poughquag
(41.6090°N, 73.6820°W)
Time: 09:54:45
(UTC-05:00)

SR - Pass Details

Date: 07 December 2023
Orbit: 574 x 868 km, 66.7° (Epoch: 25 February)

Event Time Altitude Azimuth Distance (km) Brightness Sun altitude
Rises 09:57:21 0° 187° (S) 3,218 ? 21.0°
Reaches altitude 10° 09:59:47 10° 180° (S) 2,339 ? 21.2°
Maximum altitude 10:04:50 41° 111° (ESE) 1,180 ? 21.6°
Drops below altitude 10° 10:10:12 10° 43° (NE) 2,490 ? 22.0°
Sets 10:12:51 0° 37° (NE) 3,448 ? 22.2°
